Location: Celina Division
(33.3022°N, 96.7580°W)
Time: 08:21:21
(UTC+00:00)

Cosmos 1805 Rocket - Pass Details

Date: 08 December 2021
Orbit: 606 x 629 km, 82.5° (Epoch: 17 January)

Event Time Altitude Azimuth Distance (km) Brightness Sun altitude
Rises 12:34:36 0° 196° (SSW) 2,881 7.1 -9.2°
Reaches altitude 10° 12:36:52 10° 201° (SSW) 1,976 6.2 -8.8°
Maximum altitude 12:41:08 52° 278° (W) 763 3.7 -8.0°
Drops below altitude 10° 12:45:24 10° 356° (N) 1,974 5.9 -7.1°
Sets 12:47:41 0° 1° (N) 2,879 6.8 -6.7°
